Preview of NWS' New Version of Forecast
This preview is not operational and should not be used for support decisions.

Regional Weather Roundup (RWR)

Issued by National Weather Service (NWS)

                            
000
ASUS44 KMEG 181000
RWRTN 
TENNESSEE HOURLY STATE WEATHER ROUNDUP
NATIONAL WEATHER SERVICE MEMPHIS TN
500 AM CDT SAT MAY 18 2019

TNZ002-004-019-021-049-052-054-088>092-181100-
WEST TENNESSEE
  
CITY           SKY/WX    TMP DP  RH WIND       PRES   REMARKS
MEMPHIS INTL   FAIR      70  63  78 S7        29.91R                  
NWS MEMPHIS      N/A     69 N/A N/A MISG        N/A                   
JACKSON        FAIR      69  64  84 S7        29.93S                  
DYERSBURG      FAIR      69  65  86 S3        29.92R                  
$$

TNZ008-025-027-028-033-062-065-066-181100-
NORTH MIDDLE TENNESSEE
  
CITY           SKY/WX    TMP DP  RH WIND       PRES   REMARKS
NASHVILLE      FAIR      68  60  75 CALM      29.98R                  
CLARKSVILLE    FAIR      65  61  87 S5        29.94S                  
SMYRNA         FAIR      63  61  93 SE3       29.99R                  
CROSSVILLE     FAIR      57  55  93 CALM      30.05R                  
$$

TNZ061-075-076-078-094-096-097-181100-
SOUTH MIDDLE TENNESSEE
  
CITY           SKY/WX    TMP DP  RH WIND       PRES   REMARKS
$$

TNZ017-018-042-046-047-181100-
NORTHEAST TENNESSEE
  
CITY           SKY/WX    TMP DP  RH WIND       PRES   REMARKS
TRI CITIES     FOG       58  56  93 CALM      30.05R VSB<1/4          
$$

TNZ012-013-036-069-073-074-181100-
CENTRAL EAST TENNESSEE
  
CITY           SKY/WX    TMP DP  RH WIND       PRES   REMARKS
KNOXVILLE      FAIR      64  61  90 CALM      30.01R                  
OAK RIDGE      FAIR      62  59  90 CALM      30.03R                  
$$

TNZ083-085-099-181100-
SOUTHEAST TENNESSEE
  
CITY           SKY/WX    TMP DP  RH WIND       PRES   REMARKS
CHATTANOOGA    FAIR      66  64  93 CALM      30.01R                  
$$

SKY/WX REPORTED AS FAIR MEANS FEW OR NO CLOUDS BELOW
12 THOUSAND FEET.